2000 XR15 

Epoch 2000 Dec. 2.0 TT = JDT 2451880.5                  Nakano

M 109.12283              (2000.0)            P               Q

n   0.48763969     Peri.  340.21119     +0.66029457     +0.74512666

a   1.5985885      Node   330.87593     -0.66047752     +0.51670784

e   0.1061834      Incl.   11.11119     -0.35746403     +0.42166250

P   2.02           H   16.5           G   0.15           U   *

Residuals in seconds of arc 

001205 704  0.2+  0.0     001206 046  0.3+  0.1-    001207 704  0.4-  0.6+  

001205 704  0.6+  0.2+    001206 046  0.3-  0.3+    001207 704  1.0-  0.4-  

001205 704  0.1+  1.2-    001206 046  0.3-  0.2+    001207 704  0.5-  0.2-  

001205 704  0.2-  0.2+    001206 704  0.4+  0.5-    001207 704  0.6-  0.1-  

001205 704  0.3-  0.0     001206 046  0.1+  0.0     001207 704  0.9+  0.8+  

001206 704  0.2+  0.2+    001206 046  0.0   0.3+    001207 704  0.1-  0.0   

001206 704  0.0   0.6-    001206 046  0.3-  0.4-    001207 704  0.6+  0.0   

001206 704  0.0   0.1-    001206 046  0.1-  0.0     001207 704  0.3+  0.5+  

001206 704  0.6-  0.5-    001206 046  0.0   0.1+    001207 704  0.7+  0.8-  

001206 704  0.3-  0.5+    001207 704  0.0   0.3+    001215 402  0.6+  0.0   

001206 704  0.3+  0.3+    001207 704  0.9-  0.3-    001215 402  0.9+  0.4+  

001206 704  0.3-  0.2-    001207 704  0.7-  0.2-    001215 402  0.1+  0.7-  

001206 046  1.6+  0.8+    001207 704  0.1+  0.3-    001217 704  0.8-  0.1-  

001206 704  0.2-  0.4+    001207 704  0.1-  0.1-    001217 704  0.1-  0.1-  

001206 046  0.6+  0.1-    001207 704  0.2-  0.4+    001217 704  0.2-  0.3+  

  

NAKANO

         **** Don't distribute anyone except personal use only ****

                (C) Copyright 2000 OAA/ComputingSection

write mail from CFAD0::NAKANO on 2000-12-18 17:39:21(JST).

 





–ß‚è‚Ü‚·B